GFSSW_prec_cthk_057.txt.gz
RH
8 7 6 6 6 6 5 6 7 7 8 9 10 10 10 9 11 12 12 11 8 10 12 20 31 37 47 60 72 83 81 77 74 75 77 78 79 79 73 75 74 78 77 76 77
9 8 7 7 6 5 5 5 6 7 6 6 8 11 10 10 10 11 11 10 8 9 10 15 30 39 47 59 69 84 80 74 72 75 78 80 78 77 72 68 69 73 73 76 75
7 8 8 8 7 6 6 5 5 6 6 5 6 6 8 10 10 15 16 16 9 8 10 17 24 31 41 52 63 72 78 75 74 73 79 74 69 73 62 64 64 62 68 74 72
7 7 7 6 6 7 6 6 6 5 5 6 6 6 6 7 12 18 17 16 14 7 10 16 20 29 34 42 56 65 73 78 75 71 70 69 62 65 61 58 56 54 62 69 67
7 7 6 6 6 6 6 6 6 6 5 6 7 7 7 7 6 15 17 15 14 9 12 13 18 23 30 36 49 59 69 72 74 74 70 70 59 57 60 57 55 56 62 65 69
7 6 6 6 5 5 5 5 6 6 5 6 7 8 8 7 8 8 15 20 16 12 13 13 14 18 23 35 39 55 55 65 73 74 71 63 58 57 55 55 53 55 57 58 64
7 7 7 6 6 5 5 5 5 5 5 7 8 9 9 8 9 12 12 16 20 17 14 15 14 15 16 25 30 44 57 62 66 70 71 65 60 54 51 52 53 50 52 54 59
8 8 7 7 7 6 5 5 5 5 6 8 8 9 12 10 9 11 14 17 20 20 18 16 15 16 14 19 24 31 46 63 64 66 66 63 59 55 55 54 53 51 50 52 53
9 8 8 8 8 7 6 6 6 6 7 9 9 10 10 9 9 9 12 17 20 22 18 19 17 16 13 16 22 29 32 52 60 62 65 63 61 63 63 56 52 50 43 49 50
10 9 9 9 9 9 8 7 7 7 8 9 9 10 9 11 11 11 11 16 23 22 20 18 21 18 14 14 13 25 28 44 55 59 60 61 62 64 65 62 56 53 45 42 48
13 11 10 11 12 12 10 9 9 9 8 9 9 10 11 11 12 13 16 17 22 22 20 19 18 19 15 14 14 22 29 34 54 60 56 55 57 64 68 61 57 60 59 52 40
17 15 13 13 13 13 13 12 14 14 12 11 10 10 11 12 13 13 18 21 20 24 23 22 18 17 19 17 15 15 25 32 44 56 59 56 58 62 64 62 58 61 61 57 47
19 16 14 16 15 15 14 15 14 12 11 11 10 10 11 12 14 14 15 22 24 24 23 23 20 20 21 20 17 14 18 26 37 50 54 56 61 63 64 63 61 62 65 63 60
21 16 15 16 16 18 19 16 14 12 11 11 11 11 12 11 13 13 15 18 20 28 26 26 25 25 23 21 20 17 12 20 31 42 49 56 56 57 61 64 61 60 60 62 60
21 16 15 17 21 21 22 20 15 12 9 11 13 13 13 12 13 12 15 18 21 25 31 28 24 27 26 24 24 19 15 12 25 38 45 48 58 47 49 61 60 56 57 60 63
22 16 17 22 21 23 22 18 15 15 14 15 16 16 16 16 15 16 17 18 20 24 28 30 31 28 28 27 28 24 22 18 12 26 43 40 46 41 45 44 53 53 56 58 60
21 16 19 19 20 22 22 19 18 18 18 21 21 20 21 21 19 21 24 23 23 22 25 28 29 32 33 32 32 31 28 28 27 20 27 29 42 35 36 39 49 48 53 53 59
15 13 17 20 22 24 26 24 23 23 22 22 23 25 26 25 23 22 23 25 27 32 31 30 23 31 35 35 35 32 33 27 32 20 14 21 35 31 32 34 43 46 50 55 58
12 16 20 20 23 27 29 30 26 28 28 27 26 27 28 31 30 28 30 32 34 30 30 38 32 31 35 41 39 40 37 28 28 28 21 14 21 24 27 32 40 45 50 51 54
12 17 22 22 28 31 33 35 35 36 36 34 34 35 38 38 37 36 35 40 42 38 32 35 29 29 34 40 43 42 37 46 41 31 27 22 19 16 21 26 32 42 44 47 50
13 20 23 33 37 37 39 43 46 48 51 50 50 50 50 50 47 45 44 49 45 43 42 40 35 24 33 37 40 45 49 46 43 34 27 26 22 15 15 19 24 31 39 44 49
20 27 39 44 47 50 51 56 54 56 59 61 62 61 59 59 59 58 56 54 54 49 47 49 44 36 29 38 46 54 56 47 49 46 37 33 23 16 16 14 19 26 38 45 46
40 43 49 50 52 56 58 57 59 60 65 67 70 70 70 71 74 71 69 67 64 56 54 55 56 44 21 29 48 57 60 55 48 51 46 41 29 18 19 18 21 27 39 42 46
48 49 51 51 54 57 61 60 62 65 69 75 79 82 84 84 79 75 72 71 70 63 58 57 52 46 35 42 65 70 64 62 56 51 48 46 38 22 17 19 20 30 34 36 42
54 57 57 55 58 61 62 65 69 74 76 81 82 82 85 84 83 79 77 76 73 74 73 66 54 46 37 40 51 56 62 63 58 53 49 43 43 31 25 21 20 25 31 35 39
56 58 58 59 62 62 65 71 78 82 86 82 81 80 88 88 80 71 69 75 77 75 76 75 60 51 40 33 45 49 56 58 57 52 52 47 45 35 32 28 25 27 30 36 39
56 57 58 62 65 66 70 76 81 86 81 81 82 81 89 80 78 75 73 73 77 77 79 72 66 54 38 47 51 52 52 54 55 56 51 49 43 43 39 36 29 28 31 36 41

GFSSW_prec_cthk_060.txt.gz
RH
7 8 8 7 7 6 6 5 6 6 6 6 8 10 11 10 10 11 12 11 9 9 14 30 38 44 53 60 73 78 77 74 71 71 75 76 77 75 74 73 75 77 78 80 79
6 6 6 6 6 6 6 6 5 6 6 6 6 6 9 10 10 10 12 11 9 8 18 26 32 40 48 57 70 79 76 73 70 74 75 76 78 78 74 69 73 75 77 77 77
7 6 6 6 5 5 5 6 5 6 6 5 6 6 6 8 12 16 13 14 10 7 19 25 32 37 41 53 64 71 78 73 74 77 77 78 77 78 73 66 66 70 71 74 76
6 6 6 6 5 5 5 5 6 6 6 5 5 6 6 6 10 16 18 16 15 8 19 24 28 31 39 46 56 60 70 77 76 76 79 76 69 72 69 64 62 61 66 70 71
7 6 6 6 6 5 5 5 5 6 6 5 6 7 7 9 8 13 16 17 18 12 18 20 22 28 30 37 47 55 67 73 77 76 73 71 67 63 68 62 59 59 64 69 68
7 7 7 6 6 6 5 5 5 5 5 5 7 8 10 8 8 10 15 17 19 17 19 18 17 21 24 32 36 47 53 65 71 74 72 71 64 58 58 57 54 59 64 68 64
8 7 7 7 7 6 6 5 5 5 5 7 8 8 11 10 9 11 15 19 23 22 22 18 17 18 18 27 34 39 46 51 59 71 72 69 58 58 56 52 53 59 62 63 62
9 8 8 8 8 8 7 6 6 6 7 8 10 11 12 9 9 10 14 16 25 26 23 23 17 17 15 19 24 28 36 43 52 64 70 65 65 62 53 51 50 53 53 57 59
13 11 10 10 9 9 9 8 7 7 9 8 11 12 10 10 9 8 12 18 22 23 24 22 19 19 18 13 16 23 26 37 61 61 66 64 64 59 55 54 52 50 48 53 57
18 15 13 14 12 11 10 9 9 8 8 10 10 13 10 10 11 11 10 18 23 24 20 18 18 18 16 13 11 16 23 27 53 59 63 67 66 59 56 51 52 51 46 50 53
23 20 17 17 15 14 13 13 14 12 11 10 10 9 10 10 11 13 17 16 21 27 20 17 19 15 16 16 13 14 19 24 43 62 64 66 65 65 62 57 52 45 45 44 50
28 24 19 18 17 16 17 17 15 15 14 11 11 11 11 12 12 13 19 21 17 21 21 19 16 17 18 17 17 14 19 25 31 53 63 65 62 63 64 60 55 53 50 43 43
32 27 20 20 18 18 19 18 16 15 15 12 11 11 11 12 13 13 17 22 23 20 20 19 18 17 17 19 19 15 13 21 30 40 54 65 61 61 61 64 57 56 54 54 46
33 28 21 21 21 20 22 21 19 15 14 16 13 12 11 11 13 13 15 18 21 27 23 20 20 20 19 19 18 17 13 12 23 36 42 56 56 55 57 62 59 59 57 55 55
28 24 17 18 21 25 24 22 18 15 12 15 13 12 13 13 13 13 13 15 17 20 28 25 20 24 22 22 20 19 18 14 12 28 39 48 55 53 55 57 59 59 57 55 55
21 17 15 19 22 24 22 19 16 15 14 13 14 14 14 15 14 15 15 14 17 18 21 23 30 24 24 24 25 23 21 19 16 12 27 33 42 44 57 54 54 57 59 58 55
16 13 16 18 21 20 20 19 17 15 16 17 17 16 17 17 16 18 19 18 18 20 17 19 19 23 28 29 28 26 25 27 24 17 10 17 33 36 45 53 53 54 56 57 58
10 12 15 17 19 21 23 23 23 20 18 19 18 18 17 19 20 21 22 21 21 19 19 24 20 18 22 31 30 28 27 25 28 20 12 9 20 26 37 43 47 46 55 59 60
10 14 19 19 20 23 28 28 26 25 26 24 21 21 21 23 23 23 27 26 27 22 21 27 23 27 26 28 33 37 33 23 27 27 18 14 11 19 28 32 37 39 52 55 54
11 17 21 22 29 31 32 34 33 33 33 30 29 29 31 32 32 32 32 37 37 30 25 27 23 24 31 30 26 37 32 36 33 35 28 23 17 13 23 25 29 33 46 49 53
23 32 34 39 39 41 40 43 43 43 43 44 43 42 43 45 46 45 43 44 42 41 35 34 29 20 21 26 26 30 35 47 37 35 28 27 23 16 16 16 22 28 42 44 51
33 36 43 41 42 40 42 45 44 45 48 48 49 51 51 53 54 55 55 55 55 49 46 44 37 34 24 26 37 40 49 42 49 42 31 33 26 26 21 16 19 27 37 40 47
42 42 43 39 41 43 43 43 44 47 51 51 53 55 56 59 63 64 66 66 65 59 56 58 42 41 29 22 25 31 36 44 50 46 44 40 31 31 28 23 18 21 34 40 45
43 43 43 41 42 43 47 49 51 52 56 61 62 65 67 68 68 69 66 67 66 64 62 55 46 49 36 41 40 55 50 56 52 54 47 46 44 35 30 24 23 25 28 37 42
44 44 45 46 44 48 49 52 54 55 57 58 60 66 66 70 71 71 73 71 64 65 62 65 59 54 47 40 40 39 43 43 45 54 54 47 49 47 35 27 25 27 30 29 33
48 52 52 50 53 54 56 57 57 57 59 59 60 63 67 73 74 79 77 77 74 71 63 76 72 60 55 38 32 33 34 40 41 49 51 50 51 48 44 37 33 31 32 33 35
50 52 53 53 55 58 59 58 61 63 65 68 73 76 72 78 81 77 73 74 76 74 82 81 75 67 58 44 39 40 31 35 37 43 47 48 46 47 44 43 38 30 29 33 37

GFSSW_prec_cthk_063.txt.gz
RH
6 6 5 5 5 5 6 6 6 5 6 6 6 8 9 10 9 10 14 11 9 10 12 23 33 43 52 60 65 75 77 71 67 65 75 64 70 70 67 72 72 74 78 79 80
5 5 5 5 5 4 4 5 6 5 5 6 5 6 7 9 9 13 14 13 9 8 14 27 32 45 50 54 63 77 79 73 77 67 73 66 70 70 66 69 72 75 77 78 77
5 5 5 5 5 5 4 4 5 6 5 5 5 5 6 6 12 16 13 13 10 7 19 32 36 41 43 52 60 70 79 72 69 70 67 68 71 72 77 67 65 72 74 78 76
6 6 5 5 5 5 4 4 5 5 5 5 5 6 7 6 15 16 13 14 14 7 21 32 33 35 42 46 55 63 67 72 77 71 69 71 71 73 70 72 59 67 69 78 74
7 7 6 6 6 6 5 5 5 5 5 5 5 6 8 10 11 12 12 17 17 10 18 29 28 32 37 41 49 55 65 70 71 71 72 77 68 68 72 68 56 60 67 73 71
8 7 7 7 7 7 6 5 5 4 5 5 7 7 10 12 10 10 15 15 20 17 18 26 24 28 31 34 38 44 51 63 69 70 71 65 67 64 68 58 58 59 64 69 71
10 9 8 7 7 7 7 6 5 5 5 7 8 9 14 14 9 10 18 19 19 20 23 25 22 26 24 27 29 36 42 48 56 67 70 66 76 60 77 54 54 58 61 68 68
16 15 13 11 9 8 8 8 7 6 7 8 10 15 15 10 10 10 13 19 20 21 23 27 22 20 20 21 27 31 35 41 47 56 62 65 66 58 58 52 50 56 60 66 65
21 19 17 15 13 12 10 9 8 8 10 9 12 16 13 10 10 9 15 17 23 26 25 25 23 19 20 16 17 24 27 33 42 44 55 63 69 81 63 54 54 54 55 59 61
24 22 20 18 17 15 14 12 10 10 10 13 13 16 10 10 10 10 10 17 22 19 25 26 23 21 21 18 13 14 21 24 34 55 55 63 72 78 73 58 55 48 49 50 58
34 30 25 22 21 19 18 19 22 22 16 15 15 12 11 10 10 14 15 19 24 22 19 23 20 16 19 20 16 14 16 22 32 48 60 56 68 73 65 64 54 50 46 46 50
37 34 29 25 23 22 22 22 18 20 17 12 11 11 10 11 12 15 18 19 20 23 19 18 17 17 18 17 17 14 17 19 27 40 52 55 59 66 62 53 49 47 46 44 49
38 33 28 23 21 25 25 23 20 19 17 18 13 12 12 11 14 14 17 24 23 23 24 20 17 17 19 18 17 16 15 17 24 31 51 58 58 64 78 55 54 55 50 43 44
31 28 23 21 28 26 29 23 23 20 20 20 16 13 12 12 14 12 15 20 22 25 21 20 20 19 18 18 19 18 17 15 19 28 37 46 60 68 65 62 55 56 53 49 42
18 17 15 15 19 29 24 25 23 21 21 20 18 15 14 13 19 15 14 15 17 21 26 24 21 19 19 18 18 19 20 16 13 17 29 38 45 60 60 68 57 58 55 52 51
18 14 14 20 24 24 24 24 21 20 19 18 16 15 14 14 14 15 13 11 14 17 20 23 32 24 20 23 20 21 20 20 18 15 16 25 38 44 60 58 56 55 57 55 58
10 10 12 16 22 18 19 21 21 16 24 22 18 13 14 17 15 15 16 17 15 17 13 14 16 25 28 26 25 23 23 24 24 20 15 11 24 35 42 47 61 49 56 55 58
8 10 16 17 18 18 20 24 24 29 22 18 14 16 16 18 17 16 17 18 22 17 17 20 20 19 20 24 29 27 25 25 28 22 14 11 11 20 36 47 47 58 55 53 55
10 15 21 20 19 21 25 31 35 28 24 21 20 18 18 19 17 18 18 18 24 25 20 16 18 31 28 25 26 29 32 21 28 25 21 15 12 9 21 35 45 58 57 67 55
17 23 28 33 33 32 34 37 37 33 31 29 26 25 27 28 24 23 24 26 30 28 23 22 23 26 30 33 30 33 34 31 28 35 30 21 18 15 12 19 32 43 51 50 70
30 39 35 35 36 38 40 41 38 36 35 36 38 38 38 36 38 37 38 36 35 35 30 24 25 22 20 27 28 29 31 42 39 31 32 30 21 19 17 16 23 29 40 44 52
36 38 35 32 39 34 37 35 34 36 37 38 37 39 41 45 49 47 46 48 45 43 42 39 32 28 24 21 22 24 31 26 45 44 32 29 25 23 21 20 24 29 32 39 43
37 38 33 34 42 36 35 35 35 39 41 41 40 41 44 47 53 55 55 58 54 53 50 50 43 41 32 28 26 24 28 42 39 37 40 34 30 27 27 25 23 23 27 36 43
40 42 40 36 35 35 40 41 41 38 39 40 42 41 41 43 44 48 53 62 62 57 60 57 55 53 43 38 44 37 30 38 41 41 39 41 33 31 35 36 32 28 26 32 40
42 39 40 40 40 43 42 42 42 45 42 41 45 46 46 47 50 49 51 56 58 59 58 59 60 54 48 45 50 39 39 40 41 49 53 41 45 38 36 39 42 39 36 39 48
43 47 45 45 43 43 40 46 48 51 52 51 49 53 55 59 57 66 70 67 69 69 68 61 61 64 68 63 51 44 37 38 42 39 51 58 53 48 46 49 42 39 47 49 45
46 48 50 46 45 43 42 45 49 53 52 55 57 60 60 62 62 65 69 68 65 63 67 69 79 67 68 58 54 49 38 33 26 25 26 46 44 57 56 59 61 53 51 49 45

GFSSW_prec_cthk_069.txt.gz
RH
4 4 4 4 4 4 4 4 4 4 5 6 6 5 7 8 8 8 10 13 9 12 12 17 22 33 49 58 65 69 81 89 90 77 70 82 81 77 80 82 73 74 73 75 71
5 4 4 4 4 4 4 4 4 4 4 5 5 5 5 7 8 8 8 13 10 10 10 14 20 32 43 53 66 70 75 85 78 79 82 77 83 69 73 81 76 77 76 76 71
6 5 5 5 4 4 5 5 4 4 4 4 4 5 5 6 9 13 8 11 13 8 9 14 21 29 41 50 61 68 70 73 73 76 84 83 92 94 70 71 69 74 75 74 71
8 8 7 6 6 5 5 5 5 4 4 4 4 4 5 7 18 16 15 13 13 9 8 16 24 31 42 46 55 63 65 67 72 72 84 83 94 90 88 75 75 67 67 69 70
14 12 11 10 8 7 6 6 6 5 4 4 5 6 6 10 10 12 11 13 13 11 8 18 24 32 38 43 51 56 59 60 68 78 76 85 77 70 81 82 68 67 66 69 68
19 19 17 14 12 10 8 7 7 6 5 5 7 7 7 14 12 11 11 10 13 14 9 20 24 30 38 40 44 47 52 54 58 71 75 77 72 72 75 82 75 65 63 65 64
25 21 21 21 19 14 12 9 8 8 7 7 8 11 14 16 15 14 12 11 12 17 14 21 26 36 37 39 39 39 39 44 46 58 67 77 85 82 87 86 76 63 60 63 61
33 31 25 22 22 20 17 14 11 9 9 9 11 13 19 13 9 9 11 16 17 16 16 23 29 32 33 34 35 32 30 34 39 48 58 65 87 88 93 90 71 56 58 64 60
36 35 34 29 22 21 19 17 16 12 12 11 13 23 24 15 11 10 11 16 20 19 16 24 25 29 26 26 30 30 27 26 30 37 46 62 78 86 84 76 81 58 58 61 60
33 36 36 34 29 22 19 19 20 15 14 14 14 20 20 14 11 9 13 18 20 20 21 22 23 29 28 24 25 27 24 24 25 33 39 56 71 73 80 78 84 79 58 58 60
26 29 33 35 32 28 27 23 27 30 19 24 26 23 16 15 13 12 11 18 22 20 22 22 25 28 27 22 18 20 22 24 23 27 34 54 69 65 69 66 72 89 64 57 61
21 19 20 24 30 32 32 32 29 27 27 20 20 21 16 13 13 16 15 16 22 28 25 27 25 24 24 23 22 19 20 20 20 21 31 47 62 58 60 67 78 97 81 54 55
21 17 14 15 20 30 34 31 27 26 24 20 20 17 15 12 15 20 18 24 25 30 26 22 23 22 23 23 19 21 21 19 19 20 31 53 66 65 60 58 74 82 93 64 48
19 17 12 15 24 27 33 35 29 27 27 26 22 18 18 15 15 18 20 22 24 26 26 23 19 22 24 22 20 20 19 18 16 19 26 37 62 73 60 62 70 77 87 71 59
17 14 11 17 23 28 28 26 26 24 39 27 23 20 19 17 18 16 15 15 22 25 26 25 21 24 23 22 19 19 19 20 20 19 19 24 30 55 69 69 56 56 71 63 61
11 8 10 16 17 21 21 23 24 31 35 26 25 22 18 18 19 22 20 17 16 19 22 22 23 22 23 22 24 21 20 19 21 23 24 20 24 58 55 49 53 48 51 56 59
10 7 10 15 20 16 16 22 38 43 29 27 25 22 20 20 18 17 18 18 15 15 20 18 19 21 22 24 21 23 23 26 27 25 22 17 20 19 34 45 45 47 50 54 59
12 10 16 15 17 15 23 46 58 42 37 32 28 21 20 25 22 20 17 19 19 17 19 20 19 17 26 26 28 24 25 29 28 26 21 19 19 14 20 27 35 47 48 59 63
19 22 25 27 21 22 41 61 63 50 40 33 22 19 17 19 17 20 18 17 24 26 26 25 24 20 20 21 25 29 29 24 27 21 27 25 20 17 17 23 28 36 46 59 58
26 31 33 33 28 39 51 57 49 46 45 36 31 26 36 36 33 31 26 27 26 25 27 27 24 25 24 21 21 21 22 34 33 31 32 26 23 24 23 26 31 37 45 61 72
39 41 34 34 43 46 53 52 45 38 36 31 34 33 35 39 38 37 42 36 29 25 23 22 24 20 25 27 29 30 28 35 35 34 36 31 23 18 29 26 27 32 35 46 52
37 37 35 41 44 49 44 39 38 32 31 28 30 29 31 35 37 40 42 37 33 31 33 30 27 26 19 23 26 29 29 28 39 37 37 40 30 20 27 28 31 36 34 37 46
42 41 35 37 42 44 41 35 34 31 31 29 32 30 30 30 30 31 34 34 32 31 36 35 36 39 28 18 27 29 29 32 32 33 34 40 31 25 31 34 38 48 59 54 38
38 42 38 38 35 39 41 40 37 32 30 29 31 31 31 31 30 31 30 31 34 33 34 29 34 36 38 33 36 39 33 30 33 32 30 34 30 22 35 36 38 44 46 40 47
40 40 38 36 37 32 37 37 34 34 33 32 37 34 35 37 36 39 41 42 40 41 38 38 35 32 29 27 33 40 36 34 36 32 32 30 29 29 40 40 41 44 51 56 55
45 50 42 40 39 39 38 39 37 35 36 39 39 39 39 41 47 45 45 48 45 45 46 51 53 50 45 35 32 42 44 39 38 28 27 26 27 39 38 44 43 48 48 62 69
44 52 56 51 44 43 42 43 42 42 43 44 43 46 49 50 49 47 46 44 42 42 45 53 58 65 62 56 55 45 46 43 40 33 28 28 26 39 38 41 46 56 56 61 72

GFSSW_prec_cthk_072.txt.gz
RH
4 4 4 4 4 4 4 4 4 4 4 5 6 6 6 7 7 8 9 14 11 14 16 22 24 33 45 52 69 78 87 94 91 82 82 85 90 91 83 80 78 80 72 65 69
6 5 5 5 5 4 4 5 4 4 4 4 4 5 5 6 8 8 7 11 11 11 13 16 20 38 44 51 67 76 86 85 76 78 86 85 92 91 87 83 75 81 76 71 70
10 8 7 6 6 5 5 5 5 5 4 4 4 4 5 5 8 12 9 8 13 9 11 12 16 33 41 49 60 70 76 72 77 79 76 87 96 95 92 84 76 81 76 72 71
17 15 11 10 9 7 6 5 5 5 4 4 4 4 5 6 14 14 12 10 13 11 9 12 17 29 37 45 52 66 64 67 71 82 80 85 86 87 95 90 84 75 71 69 71
29 22 19 16 13 11 8 7 6 6 5 4 4 5 6 7 6 12 11 13 13 13 8 10 17 25 34 40 51 61 58 61 66 77 79 83 82 81 82 91 89 82 73 69 69
32 28 26 23 20 16 12 10 8 7 6 5 6 7 7 10 9 10 11 12 13 15 9 10 17 24 34 41 47 56 52 51 46 64 75 76 86 87 90 90 80 80 72 70 68
30 33 31 27 25 21 18 14 11 9 8 8 8 11 12 12 12 12 11 11 12 17 12 10 25 29 37 42 45 48 45 41 45 58 70 70 83 93 85 88 83 76 69 71 69
27 29 30 32 29 25 21 18 15 13 10 10 12 13 14 13 12 9 10 14 16 17 15 20 31 34 33 38 39 37 36 37 41 52 67 66 80 90 88 88 81 75 66 70 70
26 27 29 29 31 31 23 19 18 17 13 12 12 19 21 15 11 10 11 14 18 18 17 28 34 28 28 30 33 35 36 37 43 46 51 65 79 79 75 75 73 63 63 63 67
21 22 24 26 29 30 28 24 21 21 16 17 16 19 17 14 13 10 12 14 20 21 19 26 28 28 28 28 31 32 35 31 31 45 51 58 65 68 76 73 69 63 66 58 64
20 19 19 19 24 27 34 31 29 28 22 18 24 22 19 16 15 12 15 18 20 22 20 26 27 28 28 27 25 25 27 29 32 34 40 48 58 64 76 68 73 77 78 59 60
19 19 17 17 16 22 32 36 33 30 27 19 23 22 20 18 15 16 15 20 23 22 22 27 27 24 25 28 25 21 24 26 29 29 35 51 60 69 74 73 69 68 73 63 62
16 18 18 17 19 21 25 32 33 32 29 23 21 20 18 16 15 19 18 20 24 26 27 29 24 24 25 26 27 24 24 22 28 33 38 47 69 74 74 76 74 74 66 63 59
11 14 17 23 27 28 28 26 32 31 31 27 23 18 18 17 17 21 24 23 27 29 28 27 20 24 24 25 26 27 20 20 23 25 27 42 68 79 80 77 75 73 68 75 70
10 8 8 22 26 25 28 24 24 30 38 29 25 22 21 19 20 20 19 22 26 26 24 25 21 22 24 21 22 22 22 20 20 23 25 31 29 47 65 70 67 69 65 65 63
11 8 9 14 17 17 19 25 25 36 34 28 26 24 21 20 21 21 20 18 16 22 22 21 21 19 21 22 24 22 21 21 22 23 25 26 25 37 51 47 58 66 66 68 65
10 9 9 14 18 15 18 28 41 40 31 28 25 24 20 20 20 20 20 19 19 18 23 20 21 21 20 21 22 22 23 26 25 25 25 25 28 23 31 33 42 55 64 68 71
15 19 19 19 18 23 34 48 52 42 38 32 29 23 24 25 24 22 21 23 23 21 22 24 21 25 21 21 23 27 26 28 26 26 26 20 26 25 26 27 32 37 45 60 63
25 28 29 21 28 38 46 59 50 47 43 36 34 29 30 27 26 23 24 26 25 25 25 24 22 21 21 25 23 27 29 26 26 26 28 24 19 16 22 25 24 30 39 46 46
33 33 30 30 37 39 44 53 54 49 47 44 42 32 34 30 29 28 28 30 28 25 25 25 24 23 21 25 25 28 29 32 32 33 35 29 23 23 29 31 32 36 34 42 45
35 35 38 39 40 45 52 49 46 47 51 44 45 40 37 36 35 36 33 31 28 25 24 24 24 27 24 28 29 28 30 32 31 35 39 34 26 30 39 40 40 40 32 39 47
35 37 37 37 37 40 40 37 34 35 35 33 31 33 38 41 43 39 38 33 31 29 29 26 25 24 29 28 29 30 33 32 35 34 39 39 35 33 45 43 42 42 31 36 48
38 37 36 37 42 40 36 34 35 31 32 33 32 31 32 36 44 42 38 36 29 27 28 28 31 32 22 28 33 35 36 37 35 34 34 36 34 31 42 48 52 51 48 44 43
41 43 34 32 35 41 39 36 35 31 30 32 33 30 30 33 34 41 41 37 34 31 29 25 29 30 33 30 27 32 38 38 38 40 39 37 34 32 38 45 50 57 49 41 42
44 42 40 40 38 37 38 38 34 34 31 33 35 34 33 37 37 36 35 35 34 34 34 32 31 29 27 28 26 26 29 38 38 38 40 38 38 37 40 42 48 55 55 57 61
38 42 41 44 44 39 40 43 38 37 35 36 37 38 39 42 39 41 39 39 38 38 40 38 39 37 37 34 33 28 23 25 35 40 44 40 41 45 43 50 55 58 59 63 75
37 41 41 42 43 42 39 38 39 38 38 38 38 37 41 42 41 41 40 41 40 42 42 40 42 45 48 42 38 34 22 25 26 49 57 60 50 46 46 58 57 60 66 71 71

GFSSW_prec_cthk_075.txt.gz
RH
7 6 5 5 5 4 4 4 4 4 4 4 5 5 6 7 7 8 11 13 15 17 21 27 30 34 49 58 73 83 90 93 86 83 86 91 93 92 91 88 80 74 72 72 69
14 10 8 7 6 5 5 4 4 4 4 4 4 5 5 6 7 8 9 11 15 13 15 20 25 33 47 55 69 82 87 82 81 82 88 88 96 91 97 87 83 83 76 77 67
27 22 15 11 9 8 6 5 5 4 5 4 4 4 5 6 7 11 9 9 15 11 13 15 18 31 42 48 64 78 81 74 77 76 85 89 95 89 95 95 83 79 77 78 69
28 27 26 19 16 11 9 7 6 5 5 5 4 4 5 6 12 13 10 8 15 12 11 13 17 33 42 48 56 74 71 72 72 75 79 87 86 85 92 92 88 83 78 76 71
26 29 30 26 22 20 14 10 8 6 6 5 5 5 6 6 6 14 12 12 14 14 10 11 15 24 35 44 55 71 67 62 60 60 70 82 82 78 83 92 93 84 81 82 74
20 23 25 29 28 23 22 16 10 8 7 7 6 7 7 7 9 11 13 13 14 16 11 10 13 18 27 41 51 66 59 55 51 54 67 77 82 80 83 86 90 84 79 82 76
19 23 23 25 26 29 23 22 17 11 9 9 8 10 11 10 12 12 11 15 11 17 15 9 17 25 31 43 50 53 52 47 52 58 67 75 79 81 81 85 86 80 75 77 74
18 20 22 23 25 26 27 23 20 17 13 11 11 13 13 15 13 12 11 15 16 18 19 10 21 26 32 41 42 42 44 41 52 57 70 71 79 78 77 86 87 78 66 69 72
19 17 19 21 25 25 25 25 22 20 16 13 13 16 19 16 13 10 13 18 19 21 19 18 25 29 30 34 38 40 45 43 38 54 64 64 74 72 74 69 78 65 59 64 67
17 17 16 17 21 24 23 27 28 25 19 17 16 19 17 16 14 12 14 16 20 22 19 24 31 30 30 33 39 36 41 44 40 51 46 54 60 65 73 77 74 70 62 55 60
10 15 15 16 18 21 30 30 31 34 24 18 20 21 20 17 16 12 14 16 24 25 22 24 32 34 32 30 31 33 36 40 45 35 32 45 51 61 66 79 77 72 70 64 55
8 9 15 16 18 24 27 30 32 32 31 22 21 22 21 20 19 19 18 21 24 26 22 28 32 31 32 33 30 29 31 36 37 40 40 52 49 58 64 73 74 77 75 69 59
8 7 10 19 27 27 27 28 31 37 33 29 23 23 20 18 17 20 19 22 24 26 23 28 29 33 31 30 31 27 25 36 40 37 49 51 60 64 62 73 70 74 77 73 74
9 7 8 19 29 30 29 26 26 34 35 31 29 26 22 18 16 20 24 25 26 28 29 29 28 28 28 29 29 29 22 32 36 30 29 45 68 64 64 68 63 72 77 75 73
9 8 9 16 20 28 30 25 23 29 40 28 26 23 21 18 22 24 26 28 28 28 30 30 23 28 26 24 27 25 24 24 32 30 27 29 42 48 71 72 66 66 74 78 72
9 8 8 15 18 15 22 25 25 34 37 31 27 25 24 21 23 22 21 20 26 28 25 24 22 22 24 25 24 24 25 24 25 28 29 26 26 30 56 53 49 60 68 75 71
11 11 11 14 16 17 24 29 40 44 35 36 30 26 24 24 23 23 23 23 22 20 25 24 25 23 20 20 22 24 25 27 26 29 29 26 26 24 34 39 38 40 56 68 69
22 19 19 19 28 32 37 37 50 43 40 35 33 29 26 24 24 24 26 26 25 22 25 26 26 25 23 22 24 24 26 28 25 29 29 28 28 26 26 29 29 33 38 62 69
29 27 27 34 32 38 39 44 48 45 41 37 33 35 36 32 27 27 29 31 28 27 25 25 25 26 25 24 26 29 32 27 29 29 28 28 28 27 33 35 33 33 34 40 51
30 32 36 37 34 42 50 52 49 45 42 39 38 37 37 35 34 31 32 31 30 28 27 26 24 27 27 27 28 30 30 32 32 34 33 30 33 41 40 41 42 38 37 35 40
35 34 36 36 35 35 50 52 50 48 46 43 40 37 35 33 33 34 35 33 31 28 27 26 25 29 27 31 31 34 34 35 35 39 40 38 40 37 44 43 43 41 37 32 34
34 38 37 36 39 40 40 38 33 43 44 46 43 45 40 35 35 33 37 36 31 28 27 25 28 35 34 31 30 29 33 36 42 41 43 45 40 30 32 34 38 39 36 33 34
39 37 37 36 41 40 36 36 34 28 33 34 34 32 39 44 42 39 38 36 32 30 28 27 30 33 36 34 32 33 33 33 38 42 46 46 37 28 31 33 38 44 40 35 36
35 41 34 35 39 40 40 39 36 31 31 32 34 32 32 38 42 47 44 40 34 32 30 28 32 29 33 36 36 39 39 36 37 45 44 41 37 38 40 40 41 46 50 47 48
27 33 38 44 44 43 43 40 38 37 31 31 32 34 32 37 38 44 43 41 37 35 31 28 32 30 29 28 29 32 34 37 38 38 43 37 37 52 52 49 47 51 56 59 58
32 35 34 35 35 40 43 41 38 38 35 37 36 35 33 35 37 39 38 38 37 33 31 32 40 35 34 29 26 25 24 26 27 31 35 40 41 49 53 57 48 51 56 60 66
30 30 30 34 34 34 36 37 37 36 36 35 35 36 38 38 37 36 35 34 35 35 36 36 39 40 37 34 27 24 23 22 24 28 27 39 47 51 54 54 52 52 54 56 62